Millville, NJ

6:19 AM EDT on March 24, 2017 (GMT -0400)
Millville Municipal

Weather History for KMIV - January, 2013

Change the Weather History Date:

Sunday, January 6, 2013

  Actual Average Record
Temperature  
Mean Temperature 38 °F -  
Max Temperature 48 °F 41 °F 71 °F (2007)
Min Temperature 28 °F 23 °F 5 °F (1999)
Degree Days  
Heating Degree Days 27    
Moisture  
Dew Point 28 °F    
Average Humidity 77    
Maximum Humidity 100    
Minimum Humidity 38    
Precipitation  
Precipitation 0.00 in - - ()
Sea Level Pressure  
Sea Level Pressure 30.12 in    
Wind  
Wind Speed 2 mph (West)    
Max Wind Speed 14 mph    
Max Gust Speed -    
Visibility 7 miles    
Events Rain    
Averages and records for this station are not official NWS values.
T = Trace of Precipitation, MM = Missing Value Source: NWS Daily Summary

Daily Weather History Graph

Daily Weather History Graph

Search for Another Location

Airport or City:

Trip Planner

Search our weather history database for the weather conditions in past years. The results will help you decide how hot, cold, wet, or windy it might be!

Date:

Astronomy

Jan. 06, 2013 Rise Set
Actual Time 7:20 AM EST 4:52 PM EST
Civil Twilight 6:50 AM EST 5:22 PM EST
Nautical Twilight 6:17 AM EST 5:55 PM EST
Astronomical Twilight 5:44 AM EST 6:28 PM EST
Moon 1:32 AM EST (1/6) 12:17 PM EST (1/6)
Length of Visible Light 10h 31m
Length of Day
9h 31m
Waning Crescent, 33% of the Moon is Illuminated
Jan 6
Waning Crescent
Jan 11
New
Jan 18
First Quarter
Jan 26
Full
Feb 3
Last Quarter

Hourly Weather History & Observations

Time (EST) Temp. Windchill Dew Point Humidity Pressure Visibility Wind Dir Wind Speed Gust Speed Precip Events Conditions
12:54 AM 36.0 °F - 30.0 °F 79% 30.23 in 7.0 mi Calm Calm - 0.00 in Rain Light Rain
1:12 AM 35.6 °F - 30.2 °F 81% 30.23 in 8.0 mi Calm Calm - 0.00 in   Overcast
1:21 AM 35.6 °F 32.8 °F 30.2 °F 81% 30.23 in 8.0 mi West 3.5 mph - 0.00 in   Overcast
1:54 AM 35.1 °F - 30.9 °F 85% 30.23 in 7.0 mi Calm Calm - 0.00 in   Overcast
2:54 AM 34.0 °F 31.0 °F 30.9 °F 89% 30.21 in 6.0 mi SE 3.5 mph - 0.00 in Rain Light Rain
3:54 AM 34.0 °F - 32.0 °F 92% 30.17 in 5.0 mi Calm Calm - 0.00 in   Overcast
4:54 AM 34.0 °F - 32.0 °F 92% 30.15 in 4.0 mi Calm Calm - N/A   Overcast
5:54 AM 32.0 °F - 30.0 °F 92% 30.14 in 3.0 mi Calm Calm - N/A   Scattered Clouds
6:24 AM 28.4 °F - 28.4 °F 100% 30.14 in 2.5 mi Calm Calm - N/A   Scattered Clouds
6:54 AM 28.9 °F - 27.0 °F 92% 30.14 in 3.0 mi Calm Calm - N/A   Mostly Cloudy
7:11 AM 28.4 °F - 26.6 °F 93% 30.14 in 2.5 mi Calm Calm - N/A   Mostly Cloudy
7:24 AM 28.4 °F - 28.4 °F 100% 30.14 in 3.0 mi Calm Calm - N/A   Mostly Cloudy
7:32 AM 28.4 °F - 28.4 °F 100% 30.14 in 2.0 mi Calm Calm - N/A   Overcast
7:43 AM 28.4 °F - 26.6 °F 93% 30.14 in 1.8 mi Calm Calm - N/A   Mostly Cloudy
7:54 AM 28.0 °F - 27.0 °F 96% 30.14 in 1.8 mi Calm Calm - N/A   Scattered Clouds
8:30 AM 32.0 °F - 28.4 °F 87% 30.14 in 3.0 mi Calm Calm - N/A   Clear
8:54 AM 37.0 °F 32.4 °F 32.0 °F 82% 30.14 in 9.0 mi WSW 5.8 mph - N/A   Clear
9:54 AM 42.1 °F 37.1 °F 33.1 °F 70% 30.14 in 10.0 mi West 8.1 mph - N/A   Clear
10:54 AM 44.1 °F 40.1 °F 28.9 °F 55% 30.12 in 10.0 mi West 6.9 mph - N/A   Clear
11:54 AM 46.9 °F - 26.1 °F 44% 30.08 in 10.0 mi WNW 4.6 mph - N/A   Clear
12:54 PM 48.0 °F - 25.0 °F 41% 30.05 in 10.0 mi WNW 8.1 mph - N/A   Clear
1:54 PM 48.9 °F - 25.0 °F 39% 30.04 in 10.0 mi West 8.1 mph - N/A   Clear
2:54 PM 48.9 °F - 24.1 °F 38% 30.03 in 10.0 mi WNW 13.8 mph - N/A   Clear
3:54 PM 48.0 °F - 26.1 °F 42% 30.03 in 10.0 mi West 6.9 mph - N/A   Clear
4:54 PM 39.0 °F - 26.1 °F 60% 30.03 in 10.0 mi Calm Calm - N/A   Clear
5:54 PM 32.0 °F - 25.0 °F 75% 30.04 in 10.0 mi Calm Calm - N/A   Clear
6:54 PM 30.0 °F - 24.1 °F 79% 30.06 in 10.0 mi Calm Calm - N/A   Clear
7:54 PM 30.0 °F - 25.0 °F 82% 30.06 in 10.0 mi Calm Calm - N/A   Mostly Cloudy
8:54 PM 33.1 °F - 28.0 °F 82% 30.07 in 10.0 mi Calm Calm - N/A   Overcast
10:54 PM 36.0 °F 32.1 °F 28.9 °F 76% 30.09 in 10.0 mi West 4.6 mph - N/A   Overcast
11:54 PM 39.0 °F 35.7 °F 30.0 °F 70% 30.10 in 10.0 mi West 4.6 mph - N/A   Overcast